EN

Hourly Weather Tolstoe

Today, 11 April, Sunday

Time Temperature Precipitation Wind Pressure Humidity
00:00 +5°C° 0 mm 1 mps 748 mmHg 60%
01:00 +4°C° 0 mm 1 mps 748 mmHg 61%
02:00 +4°C° 0 mm 1 mps 748 mmHg 63%
03:00 +4°C° 0 mm 1 mps 748 mmHg 64%
04:00 +3°C° 0 mm 1 mps 748 mmHg 64%
05:00 +3°C° 0 mm 1 mps 749 mmHg 65%
06:00 +5°C° 0 mm 1 mps 749 mmHg 60%
07:00 +6°C° 0 mm 1 mps 749 mmHg 56%
08:00 +8°C° 0 mm 1 mps 750 mmHg 52%
09:00 +9°C° 0 mm 1 mps 750 mmHg 48%
10:00 +10°C° 0 mm 1 mps 750 mmHg 44%
11:00 +10°C° 0 mm 2 mps 750 mmHg 40%
12:00 +12°C° 0 mm 2 mps 750 mmHg 38%
13:00 +12°C° 0 mm 3 mps 750 mmHg 37%
14:00 +12°C° 0 mm 3 mps 750 mmHg 36%
15:00 +12°C° 0 mm 3 mps 750 mmHg 38%
16:00 +12°C° 0 mm 3 mps 750 mmHg 41%
17:00 +12°C° 0 mm 3 mps 750 mmHg 44%
18:00 +10°C° 0 mm 3 mps 750 mmHg 49%
19:00 +9°C° 0 mm 3 mps 750 mmHg 55%
20:00 +8°C° 0 mm 3 mps 750 mmHg 60%
21:00 +7°C° 0 mm 3 mps 750 mmHg 62%
22:00 +5°C° 0 mm 3 mps 750 mmHg 65%
23:00 +5°C° 0 mm 3 mps 750 mmHg 67%

Tomorrow, 12 April, Monday

Time Temperature Precipitation Wind Pressure Humidity
00:00 +4°C° 0 mm 3 mps 749 mmHg 68%
01:00 +4°C° 0 mm 4 mps 749 mmHg 70%
02:00 +3°C° 0 mm 4 mps 749 mmHg 71%
03:00 +3°C° 0 mm 4 mps 749 mmHg 70%
04:00 +3°C° 0 mm 4 mps 749 mmHg 70%
05:00 +3°C° 0 mm 4 mps 749 mmHg 69%
06:00 +3°C° 0 mm 5 mps 748 mmHg 72%
07:00 +5°C° 0 mm 5 mps 748 mmHg 74%
08:00 +6°C° 0 mm 5 mps 748 mmHg 76%
09:00 +7°C° 0 mm 5 mps 748 mmHg 74%
10:00 +9°C° 0 mm 5 mps 748 mmHg 72%
11:00 +11°C° 0 mm 4 mps 747 mmHg 70%
12:00 +13°C° 0 mm 5 mps 747 mmHg 68%
13:00 +14°C° 0 mm 5 mps 747 mmHg 66%
14:00 +15°C° 0 mm 5 mps 747 mmHg 63%
15:00 +15°C° 0 mm 4 mps 746 mmHg 65%
16:00 +15°C° 0 mm 4 mps 746 mmHg 67%
17:00 +15°C° 0 mm 4 mps 746 mmHg 69%
18:00 +13°C° 0 mm 4 mps 746 mmHg 73%
19:00 +12°C° 0 mm 3 mps 746 mmHg 77%
20:00 +11°C° 0 mm 3 mps 745 mmHg 82%
21:00 +11°C° 0 mm 3 mps 745 mmHg 81%
22:00 +11°C° 0 mm 3 mps 745 mmHg 80%
23:00 +10°C° 0 mm 4 mps 745 mmHg 79%

Day after tomorrow, 13 April, Tuesday

Time Temperature Precipitation Wind Pressure Humidity
00:00 +10°C° 0 mm 3 mps 745 mmHg 79%
01:00 +10°C° 0 mm 3 mps 745 mmHg 80%
02:00 +10°C° 0 mm 3 mps 745 mmHg 80%
03:00 +9°C° 0 mm 3 mps 745 mmHg 81%
04:00 +9°C° 0 mm 3 mps 745 mmHg 82%
05:00 +9°C° 0 mm 3 mps 745 mmHg 83%
06:00 +10°C° 0 mm 4 mps 745 mmHg 77%
07:00 +12°C° 0 mm 4 mps 745 mmHg 71%
08:00 +13°C° 0 mm 5 mps 745 mmHg 65%
09:00 +14°C° 0 mm 5 mps 745 mmHg 60%
10:00 +16°C° 0 mm 5 mps 745 mmHg 55%
11:00 +17°C° 0 mm 5 mps 745 mmHg 49%
12:00 +19°C° 0 mm 6 mps 745 mmHg 48%
13:00 +19°C° 0 mm 6 mps 745 mmHg 46%
14:00 +20°C° 0 mm 6 mps 744 mmHg 44%
15:00 +19°C° 0 mm 6 mps 744 mmHg 46%
16:00 +19°C° 0 mm 5 mps 744 mmHg 47%
17:00 +18°C° 0 mm 4 mps 744 mmHg 48%
18:00 +17°C° 0 mm 4 mps 744 mmHg 52%
19:00 +14°C° 0 mm 4 mps 744 mmHg 56%
20:00 +13°C° 0 mm 3 mps 744 mmHg 60%
21:00 +12°C° 0 mm 3 mps 744 mmHg 62%
22:00 +12°C° 0 mm 3 mps 744 mmHg 65%
23:00 +11°C° 0 mm 3 mps 744 mmHg 68%

14 April, Wednesday

Time Temperature Precipitation Wind Pressure Humidity
00:00 +12°C° 0 mm 2 mps 744 mmHg 70%
01:00 +10°C° 0 mm 2 mps 743 mmHg 72%
02:00 +11°C° 0 mm 1 mps 743 mmHg 74%
03:00 +10°C° 0 mm 2 mps 743 mmHg 76%
04:00 +9°C° 0 mm 2 mps 743 mmHg 78%
05:00 +9°C° 0 mm 3 mps 743 mmHg 79%
06:00 +10°C° 0 mm 3 mps 743 mmHg 74%
07:00 +11°C° 0 mm 4 mps 743 mmHg 69%
08:00 +13°C° 0 mm 4 mps 743 mmHg 64%
09:00 +14°C° 0 mm 4 mps 743 mmHg 57%
10:00 +15°C° 0 mm 5 mps 742 mmHg 50%
11:00 +16°C° 0 mm 5 mps 742 mmHg 42%
12:00 +17°C° 0 mm 5 mps 742 mmHg 41%
13:00 +19°C° 0 mm 5 mps 742 mmHg 40%
14:00 +19°C° 0 mm 5 mps 742 mmHg 38%
15:00 +19°C° 0 mm 5 mps 741 mmHg 41%
16:00 +18°C° 0 mm 4 mps 741 mmHg 44%
17:00 +18°C° 0 mm 3 mps 741 mmHg 47%
18:00 +17°C° 0 mm 3 mps 741 mmHg 50%
19:00 +14°C° 0 mm 3 mps 741 mmHg 53%
20:00 +14°C° 0 mm 2 mps 741 mmHg 57%
21:00 +14°C° 0 mm 2 mps 741 mmHg 60%
22:00 +13°C° 0 mm 1 mps 741 mmHg 63%
23:00 +13°C° 0 mm 1 mps 741 mmHg 66%

15 April, Thursday

Time Temperature Precipitation Wind Pressure Humidity
00:00 +12°C° 0 mm 1 mps 741 mmHg 67%
01:00 +12°C° 0 mm 1 mps 740 mmHg 68%
02:00 +11°C° 0 mm 1 mps 740 mmHg 68%
03:00 +10°C° 0 mm 2 mps 740 mmHg 66%
04:00 +10°C° 0 mm 2 mps 740 mmHg 64%
05:00 +9°C° 0 mm 3 mps 740 mmHg 62%
06:00 +10°C° 0 mm 3 mps 740 mmHg 59%
07:00 +11°C° 0 mm 3 mps 739 mmHg 57%
08:00 +12°C° 0 mm 3 mps 739 mmHg 55%
09:00 +14°C° 0 mm 3 mps 739 mmHg 51%
10:00 +15°C° 0 mm 4 mps 739 mmHg 47%
11:00 +17°C° 0 mm 4 mps 738 mmHg 42%
12:00 +18°C° 0 mm 4 mps 738 mmHg 41%
13:00 +17°C° 0 mm 5 mps 737 mmHg 40%
14:00 +19°C° 0 mm 5 mps 737 mmHg 39%
15:00 +17°C° 0 mm 5 mps 737 mmHg 43%
16:00 +16°C° 0 mm 5 mps 736 mmHg 47%
17:00 +16°C° 0 mm 5 mps 736 mmHg 50%
18:00 +14°C° 0.9 mm 4 mps 736 mmHg 60%
19:00 +12°C° 0.9 mm 4 mps 736 mmHg 70%
20:00 +10°C° 0.9 mm 4 mps 736 mmHg 81%
21:00 +10°C° 0.1 mm 4 mps 736 mmHg 82%
22:00 +10°C° 0.1 mm 4 mps 736 mmHg 84%
23:00 +8°C° 0.1 mm 5 mps 736 mmHg 86%

16 April, Friday

Time Temperature Precipitation Wind Pressure Humidity
00:00 +8°C° 0.1 mm 5 mps 736 mmHg 86%
01:00 +8°C° 0.1 mm 4 mps 736 mmHg 86%
02:00 +8°C° 0.1 mm 4 mps 735 mmHg 87%
03:00 +8°C° 0.2 mm 4 mps 736 mmHg 88%
04:00 +8°C° 0.2 mm 5 mps 736 mmHg 89%
05:00 +7°C° 0.2 mm 5 mps 736 mmHg 90%
06:00 +7°C° 0.1 mm 6 mps 736 mmHg 89%
07:00 +6°C° 0.1 mm 7 mps 737 mmHg 87%
08:00 +6°C° 0.1 mm 7 mps 737 mmHg 86%
09:00 +6°C° 0.2 mm 8 mps 738 mmHg 84%
10:00 +5°C° 0.2 mm 8 mps 738 mmHg 83%
11:00 +5°C° 0.2 mm 9 mps 739 mmHg 82%
12:00 +3°C° 0.2 mm 9 mps 739 mmHg 77%
13:00 +3°C° 0.2 mm 9 mps 739 mmHg 73%
14:00 +3°C° 0.2 mm 9 mps 740 mmHg 69%
15:00 +5°C° 0.1 mm 9 mps 740 mmHg 63%
16:00 +5°C° 0.1 mm 9 mps 740 mmHg 58%
17:00 +5°C° 0.1 mm 9 mps 741 mmHg 53%
18:00 +5°C° 0 mm 9 mps 741 mmHg 52%
19:00 +3°C° 0 mm 9 mps 742 mmHg 52%
20:00 +2°C° 0 mm 9 mps 743 mmHg 52%
21:00 +1°C° 0 mm 9 mps 743 mmHg 52%
22:00 0°C° 0 mm 9 mps 744 mmHg 52%
23:00 0°C° 0 mm 8 mps 744 mmHg 52%
Show more

We Need Your Consent

Meteoprog and our Service Providers may store and access personal data such as cookies, device identifiers or other similar technologies on your device and process such data to personalise content and ads, as well as provide social media features and to analyse the traffic.

  • Store and/or access information on your device

    Cookies, device identifiers or other information can be stored or accessed on your device for the purposes indicated above.

  • Personalised ads and content, ad and content measurement, audience insights, and products development

    Ads and content can be personalised based on a profile. More data can be added to better personalise ads and content. Ad and content performance can be measured. Insights about the audience who saw the ads and content can be derived. Such data can be used to develop or improve user’s experience, systems and software.

By clicking ‘I Agree’ you will allow the use of indicated cookies, device identifiers, web beacons or other similar technologies. Your settings can be changed in the browser on your device.

For certain purposes, legitimate interests may be relied on, rather than consent. You can read more about this in our Privacy and Cookie Policy.